owner,sensor,date,latitude,longitude,vertical_datum,direction_of_sea_water_velocity,sea_water_speed,upward_sea_water_velocity,qcFlag 
TABS,ioos:station:wmo:42051:1,2004-09-01T00:00:00Z,29.6350,-93.6417,2.0,280.5170489,38.95435919,-99999.0,'11111222,11111222,99999999' 
TABS,ioos:station:wmo:42051:1,2004-09-01T00:30:00Z,29.6350,-93.6417,2.0,281.6545534,32.96967849,-99999.0,'11111222,11111222,99999999' 
TABS,ioos:station:wmo:42051:1,2004-09-01T01:00:00Z,29.6350,-93.6417,2.0,287.3661433,32.02996254,-99999.0,'11111222,11111222,99999999' 
TABS,ioos:station:wmo:42051:1,2004-09-01T01:30:00Z,29.6350,-93.6417,2.0,283.6434816,30.39770551,-99999.0,'11111222,11111222,99999999' 
TABS,ioos:station:wmo:42051:1,2004-09-01T02:00:00Z,29.6350,-93.6417,2.0,276.7566335,31.02545084,-99999.0,'11111222,11111222,99999999' 
TABS,ioos:station:wmo:42051:1,2004-09-01T02:30:00Z,29.6350,-93.6417,2.0,269.5075076,26.78098766,-99999.0,'11111222,11111222,99999999' 
TABS,ioos:station:wmo:42051:1,2004-09-01T03:00:00Z,29.6350,-93.6417,2.0,265.7920073,26.4412651,-99999.0,'11111222,11111222,99999999' 
TABS,ioos:station:wmo:42051:1,2004-09-01T03:30:00Z,29.6350,-93.6417,2.0,263.4241611,26.89692919,-99999.0,'11111222,11111222,99999999' 
TABS,ioos:station:wmo:42051:1,2004-09-01T04:00:00Z,29.6350,-93.6417,2.0,268.4341762,27.82038282,-99999.0,'11111222,11111222,99999999' 
TABS,ioos:station:wmo:42051:1,2004-09-01T04:30:00Z,29.6350,-93.6417,2.0,267.525807,33.13087533,-99999.0,'11111222,11111222,99999999' 
TABS,ioos:station:wmo:42051:1,2004-09-01T05:00:00Z,29.6350,-93.6417,2.0,269.653933,34.81063343,-99999.0,'11111222,11111222,99999999' 
TABS,ioos:station:wmo:42051:1,2004-09-01T05:30:00Z,29.6350,-93.6417,2.0,263.634627,40.8618771,-99999.0,'11111222,11111222,99999999' 
TABS,ioos:station:wmo:42051:1,2004-09-01T06:00:00Z,29.6350,-93.6417,2.0,265.7586943,42.32589042,-99999.0,'11111222,11111222,99999999' 
TABS,ioos:station:wmo:42051:1,2004-09-01T06:30:00Z,29.6350,-93.6417,2.0,270.1426994,40.27012416,-99999.0,'11111222,11111222,99999999' 
TABS,ioos:station:wmo:42051:1,2004-09-01T07:00:00Z,29.6350,-93.6417,2.0,266.0682944,46.82016873,-99999.0,'11111222,11111222,99999999' 
TABS,ioos:station:wmo:42051:1,2004-09-01T07:30:00Z,29.6350,-93.6417,2.0,266.0981541,41.44604806,-99999.0,'11111222,11111222,99999999' 
TABS,ioos:station:wmo:42051:1,2004-09-01T08:00:00Z,29.6350,-93.6417,2.0,267.3381693,41.99529736,-99999.0,'11111222,11111222,99999999' 
TABS,ioos:station:wmo:42051:1,2004-09-01T08:30:00Z,29.6350,-93.6417,2.0,265.5455437,47.64388733,-99999.0,'11111222,11111222,99999999' 
TABS,ioos:station:wmo:42051:1,2004-09-01T09:00:00Z,29.6350,-93.6417,2.0,265.1280657,48.51525533,-99999.0,'11111222,11111222,99999999' 
TABS,ioos:station:wmo:42051:1,2004-09-01T09:30:00Z,29.6350,-93.6417,2.0,266.3049895,51.67740125,-99999.0,'11111222,11111222,99999999' 
TABS,ioos:station:wmo:42051:1,2004-09-01T10:00:00Z,29.6350,-93.6417,2.0,260.9951514,56.16213137,-99999.0,'11111222,11111222,99999999' 
TABS,ioos:station:wmo:42051:1,2004-09-01T10:30:00Z,29.6350,-93.6417,2.0,264.3406051,51.92305172,-99999.0,'11111222,11111222,99999999' 
TABS,ioos:station:wmo:42051:1,2004-09-01T11:00:00Z,29.6350,-93.6417,2.0,265.3152866,52.7762835,-99999.0,'11111222,11111222,99999999' 
TABS,ioos:station:wmo:42051:1,2004-09-01T11:30:00Z,29.6350,-93.6417,2.0,267.8895206,49.97388518,-99999.0,'11111222,11111222,99999999' 
TABS,ioos:station:wmo:42051:1,2004-09-01T12:00:00Z,29.6350,-93.6417,2.0,262.8602825,44.73684946,-99999.0,'11111222,11111222,99999999' 
TABS,ioos:station:wmo:42051:1,2004-09-01T12:30:00Z,29.6350,-93.6417,2.0,264.0252698,35.45255562,-99999.0,'11111222,11111222,99999999' 
TABS,ioos:station:wmo:42051:1,2004-09-01T13:00:00Z,29.6350,-93.6417,2.0,261.9092982,40.71521829,-99999.0,'11111222,11111222,99999999' 
TABS,ioos:station:wmo:42051:1,2004-09-01T13:30:00Z,29.6350,-93.6417,2.0,260.6836217,39.90634035,-99999.0,'11111222,11111222,99999999' 
TABS,ioos:station:wmo:42051:1,2004-09-01T14:00:00Z,29.6350,-93.6417,2.0,262.5143546,40.83800313,-99999.0,'11111222,11111222,99999999' 
TABS,ioos:station:wmo:42051:1,2004-09-01T14:30:00Z,29.6350,-93.6417,2.0,263.1219429,31.31534129,-99999.0,'11111222,11111222,99999999' 
TABS,ioos:station:wmo:42051:1,2004-09-01T15:00:00Z,29.6350,-93.6417,2.0,269.7789037,28.56021183,-99999.0,'11111222,11111222,99999999' 
TABS,ioos:station:wmo:42051:1,2004-09-01T15:30:00Z,29.6350,-93.6417,2.0,262.8235381,38.9853729,-99999.0,'11111222,11111222,99999999' 
TABS,ioos:station:wmo:42051:1,2004-09-01T16:00:00Z,29.6350,-93.6417,2.0,263.0639922,36.76905764,-99999.0,'11111222,11111222,99999999' 
TABS,ioos:station:wmo:42051:1,2004-09-01T16:30:00Z,29.6350,-93.6417,2.0,276.8526214,19.27769696,-99999.0,'11111222,11111222,99999999' 
TABS,ioos:station:wmo:42051:1,2004-09-01T17:00:00Z,29.6350,-93.6417,2.0,275.6106777,20.45799599,-99999.0,'11111222,11111222,99999999' 
TABS,ioos:station:wmo:42051:1,2004-09-01T17:30:00Z,29.6350,-93.6417,2.0,267.0114486,23.21155962,-99999.0,'11111222,11111222,99999999' 
TABS,ioos:station:wmo:42051:1,2004-09-01T18:00:00Z,29.6350,-93.6417,2.0,269.022908,24.05349455,-99999.0,'11111222,11111222,99999999' 
TABS,ioos:station:wmo:42051:1,2004-09-01T18:30:00Z,29.6350,-93.6417,2.0,267.8123329,30.13195314,-99999.0,'11111222,11111222,99999999' 
TABS,ioos:station:wmo:42051:1,2004-09-01T19:00:00Z,29.6350,-93.6417,2.0,278.1722916,31.02502538,-99999.0,'11111222,11111222,99999999' 
TABS,ioos:station:wmo:42051:1,2004-09-01T19:30:00Z,29.6350,-93.6417,2.0,272.6892366,28.35121338,-99999.0,'11111222,11111222,99999999' 
TABS,ioos:station:wmo:42051:1,2004-09-01T20:00:00Z,29.6350,-93.6417,2.0,282.561489,40.41740467,-99999.0,'11111222,11111222,99999999' 
TABS,ioos:station:wmo:42051:1,2004-09-01T20:30:00Z,29.6350,-93.6417,2.0,284.8096065,30.20328459,-99999.0,'11111222,11111222,99999999' 
TABS,ioos:station:wmo:42051:1,2004-09-01T21:00:00Z,29.6350,-93.6417,2.0,281.3604497,42.59447969,-99999.0,'11111222,11111222,99999999' 
TABS,ioos:station:wmo:42051:1,2004-09-01T21:30:00Z,29.6350,-93.6417,2.0,288.9303705,31.8421623,-99999.0,'11111222,11111222,99999999' 
TABS,ioos:station:wmo:42051:1,2004-09-01T22:00:00Z,29.6350,-93.6417,2.0,282.1171386,27.29815012,-99999.0,'11111222,11111222,99999999' 
TABS,ioos:station:wmo:42051:1,2004-09-01T22:30:00Z,29.6350,-93.6417,2.0,296.2968547,24.80721065,-99999.0,'11111222,11111222,99999999' 
TABS,ioos:station:wmo:42051:1,2004-09-01T23:00:00Z,29.6350,-93.6417,2.0,304.7569766,26.52203801,-99999.0,'11111222,11111222,99999999' 
TABS,ioos:station:wmo:42051:1,2004-09-01T23:30:00Z,29.6350,-93.6417,2.0,308.6147381,21.68004843,-99999.0,'11111222,11111222,99999999' 
TABS,ioos:station:wmo:42051:1,2004-09-02T00:00:00Z,29.6350,-93.6417,2.0,317.5556159,17.12901632,-99999.0,'11111222,11111222,99999999' 
TABS,ioos:station:wmo:42051:1,2004-09-02T00:30:00Z,29.6350,-93.6417,2.0,328.2930851,12.42440341,-99999.0,'11111222,11111222,99999999' 
TABS,ioos:station:wmo:42051:1,2004-09-02T01:00:00Z,29.6350,-93.6417,2.0,328.1083058,9.104339625,-99999.0,'11133222,11111222,99999999' 
TABS,ioos:station:wmo:42051:1,2004-09-02T01:30:00Z,29.6350,-93.6417,2.0,359.2294635,2.230201785,-99999.0,'11133222,11144222,99999999' 
TABS,ioos:station:wmo:42051:1,2004-09-02T02:00:00Z,29.6350,-93.6417,2.0,190.8807012,4.714764045,-99999.0,'11133222,11111222,99999999' 
TABS,ioos:station:wmo:42051:1,2004-09-02T02:30:00Z,29.6350,-93.6417,2.0,223.4131046,7.406247363,-99999.0,'11133222,11111222,99999999' 
TABS,ioos:station:wmo:42051:1,2004-09-02T03:00:00Z,29.6350,-93.6417,2.0,223.2740339,12.21020065,-99999.0,'11111222,11111222,99999999' 
TABS,ioos:station:wmo:42051:1,2004-09-02T03:30:00Z,29.6350,-93.6417,2.0,213.1930487,11.19704425,-99999.0,'11111222,11111222,99999999' 
TABS,ioos:station:wmo:42051:1,2004-09-02T04:00:00Z,29.6350,-93.6417,2.0,216.6393904,8.462068305,-99999.0,'11133222,11111222,99999999' 
TABS,ioos:station:wmo:42051:1,2004-09-02T04:30:00Z,29.6350,-93.6417,2.0,227.067993,5.681769091,-99999.0,'11133222,11111222,99999999' 
TABS,ioos:station:wmo:42051:1,2004-09-02T05:00:00Z,29.6350,-93.6417,2.0,229.3926743,10.89316299,-99999.0,'11111222,11111222,99999999' 
TABS,ioos:station:wmo:42051:1,2004-09-02T05:30:00Z,29.6350,-93.6417,2.0,233.3602809,8.948072418,-99999.0,'11133222,11111222,99999999' 
TABS,ioos:station:wmo:42051:1,2004-09-02T06:00:00Z,29.6350,-93.6417,2.0,253.834516,13.25401826,-99999.0,'11111222,11111222,99999999' 
TABS,ioos:station:wmo:42051:1,2004-09-02T06:30:00Z,29.6350,-93.6417,2.0,258.2324634,20.39868868,-99999.0,'11111222,11111222,99999999' 
TABS,ioos:station:wmo:42051:1,2004-09-02T07:00:00Z,29.6350,-93.6417,2.0,269.1060182,16.67202747,-99999.0,'11111222,11111222,99999999' 
TABS,ioos:station:wmo:42051:1,2004-09-02T07:30:00Z,29.6350,-93.6417,2.0,272.0939215,19.98333806,-99999.0,'11111222,11111222,99999999' 
TABS,ioos:station:wmo:42051:1,2004-09-02T08:00:00Z,29.6350,-93.6417,2.0,272.1707934,23.2366693,-99999.0,'11111222,11111222,99999999' 
TABS,ioos:station:wmo:42051:1,2004-09-02T08:30:00Z,29.6350,-93.6417,2.0,258.5502679,24.98723074,-99999.0,'11111222,11111222,99999999' 
TABS,ioos:station:wmo:42051:1,2004-09-02T09:00:00Z,29.6350,-93.6417,2.0,265.3484819,26.6377195,-99999.0,'11111222,11111222,99999999' 
TABS,ioos:station:wmo:42051:1,2004-09-02T09:30:00Z,29.6350,-93.6417,2.0,263.9336569,31.60696917,-99999.0,'11111222,11111222,99999999' 
TABS,ioos:station:wmo:42051:1,2004-09-02T10:00:00Z,29.6350,-93.6417,2.0,263.4454793,36.97162831,-99999.0,'11111222,11111222,99999999' 
TABS,ioos:station:wmo:42051:1,2004-09-02T10:30:00Z,29.6350,-93.6417,2.0,266.3878473,39.36819147,-99999.0,'11111222,11111222,99999999' 
TABS,ioos:station:wmo:42051:1,2004-09-02T11:00:00Z,29.6350,-93.6417,2.0,272.8222461,37.3753194,-99999.0,'11111222,11111222,99999999' 
TABS,ioos:station:wmo:42051:1,2004-09-02T11:30:00Z,29.6350,-93.6417,2.0,275.611091,32.52582512,-99999.0,'11111222,11111222,99999999' 
TABS,ioos:station:wmo:42051:1,2004-09-02T12:00:00Z,29.6350,-93.6417,2.0,269.7326462,30.05032612,-99999.0,'11111222,11111222,99999999' 
TABS,ioos:station:wmo:42051:1,2004-09-02T12:30:00Z,29.6350,-93.6417,2.0,269.8795465,28.64006285,-99999.0,'11111222,11111222,99999999' 
TABS,ioos:station:wmo:42051:1,2004-09-02T13:00:00Z,29.6350,-93.6417,2.0,273.2027676,23.98745714,-99999.0,'11111222,11111222,99999999' 
TABS,ioos:station:wmo:42051:1,2004-09-02T13:30:00Z,29.6350,-93.6417,2.0,268.270953,24.53116385,-99999.0,'11111222,11111222,99999999' 
TABS,ioos:station:wmo:42051:1,2004-09-02T14:00:00Z,29.6350,-93.6417,2.0,269.4695697,21.62092505,-99999.0,'11111222,11111222,99999999' 
TABS,ioos:station:wmo:42051:1,2004-09-02T14:30:00Z,29.6350,-93.6417,2.0,271.2965963,22.545769,-99999.0,'11111222,11111222,99999999' 
TABS,ioos:station:wmo:42051:1,2004-09-02T15:00:00Z,29.6350,-93.6417,2.0,265.9460343,16.55140477,-99999.0,'11111222,11111222,99999999' 
TABS,ioos:station:wmo:42051:1,2004-09-02T15:30:00Z,29.6350,-93.6417,2.0,270.9794992,20.4829905,-99999.0,'11111222,11111222,99999999' 
TABS,ioos:station:wmo:42051:1,2004-09-02T16:00:00Z,29.6350,-93.6417,2.0,274.4725405,17.95466513,-99999.0,'11111222,11111222,99999999' 
TABS,ioos:station:wmo:42051:1,2004-09-02T16:30:00Z,29.6350,-93.6417,2.0,291.1404465,28.47642007,-99999.0,'11111222,11111222,99999999' 
TABS,ioos:station:wmo:42051:1,2004-09-02T17:00:00Z,29.6350,-93.6417,2.0,308.4391756,23.08265366,-99999.0,'11111222,11111222,99999999' 
TABS,ioos:station:wmo:42051:1,2004-09-02T17:30:00Z,29.6350,-93.6417,2.0,309.5361063,18.49001082,-99999.0,'11111222,11111222,99999999' 
TABS,ioos:station:wmo:42051:1,2004-09-02T18:00:00Z,29.6350,-93.6417,2.0,311.4906792,21.60019676,-99999.0,'11111222,11111222,99999999' 
TABS,ioos:station:wmo:42051:1,2004-09-02T18:30:00Z,29.6350,-93.6417,2.0,330.0885819,17.46664536,-99999.0,'11111222,11111222,99999999' 
TABS,ioos:station:wmo:42051:1,2004-09-02T19:00:00Z,29.6350,-93.6417,2.0,340.5400145,15.72852504,-99999.0,'11111222,11111222,99999999' 
TABS,ioos:station:wmo:42051:1,2004-09-02T19:30:00Z,29.6350,-93.6417,2.0,349.2265975,17.60023295,-99999.0,'11111222,11111222,99999999' 
TABS,ioos:station:wmo:42051:1,2004-09-02T20:00:00Z,29.6350,-93.6417,2.0,349.6918745,14.58542423,-99999.0,'11111222,11111222,99999999' 
TABS,ioos:station:wmo:42051:1,2004-09-02T20:30:00Z,29.6350,-93.6417,2.0,354.712617,12.80448749,-99999.0,'11111222,11111222,99999999' 
TABS,ioos:station:wmo:42051:1,2004-09-02T21:00:00Z,29.6350,-93.6417,2.0,5.572395232,14.00618435,-99999.0,'11111222,11111222,99999999' 
TABS,ioos:station:wmo:42051:1,2004-09-02T21:30:00Z,29.6350,-93.6417,2.0,14.86937498,10.67754653,-99999.0,'11111222,11111222,99999999' 
TABS,ioos:station:wmo:42051:1,2004-09-02T22:00:00Z,29.6350,-93.6417,2.0,2.374917993,10.61911955,-99999.0,'11111222,11111222,99999999' 
TABS,ioos:station:wmo:42051:1,2004-09-02T22:30:00Z,29.6350,-93.6417,2.0,359.7511005,6.900065217,-99999.0,'11133222,11144222,99999999' 
TABS,ioos:station:wmo:42051:1,2004-09-02T23:00:00Z,29.6350,-93.6417,2.0,319.7512336,5.293203189,-99999.0,'11133222,11111222,99999999' 
TABS,ioos:station:wmo:42051:1,2004-09-02T23:30:00Z,29.6350,-93.6417,2.0,12.54855705,3.175862088,-99999.0,'11133222,11111222,99999999' 
TABS,ioos:station:wmo:42051:1,2004-09-03T00:00:00Z,29.6350,-93.6417,2.0,16.54693258,1.439618005,-99999.0,'11133222,11111222,99999999' 
TABS,ioos:station:wmo:42051:1,2004-09-03T00:30:00Z,29.6350,-93.6417,2.0,64.19313214,2.365967033,-99999.0,'11133222,11111222,99999999' 
TABS,ioos:station:wmo:42051:1,2004-09-03T01:00:00Z,29.6350,-93.6417,2.0,147.7933163,3.320993827,-99999.0,'11133222,11111222,99999999' 
TABS,ioos:station:wmo:42051:1,2004-09-03T01:30:00Z,29.6350,-93.6417,2.0,138.303466,4.540099118,-99999.0,'11133222,11111222,99999999' 
TABS,ioos:station:wmo:42051:1,2004-09-03T02:00:00Z,29.6350,-93.6417,2.0,183.7515098,6.113100686,-99999.0,'11133222,11111222,99999999' 
TABS,ioos:station:wmo:42051:1,2004-09-03T02:30:00Z,29.6350,-93.6417,2.0,159.2370742,5.839220838,-99999.0,'11133222,11111222,99999999' 
TABS,ioos:station:wmo:42051:1,2004-09-03T03:00:00Z,29.6350,-93.6417,2.0,167.1116346,4.841983065,-99999.0,'11133222,11111222,99999999' 
TABS,ioos:station:wmo:42051:1,2004-09-03T03:30:00Z,29.6350,-93.6417,2.0,174.6496116,6.327566673,-99999.0,'11133222,11111222,99999999' 
TABS,ioos:station:wmo:42051:1,2004-09-03T04:00:00Z,29.6350,-93.6417,2.0,165.3430727,2.687452325,-99999.0,'11133222,11111222,99999999' 
TABS,ioos:station:wmo:42051:1,2004-09-03T04:30:00Z,29.6350,-93.6417,2.0,191.8884198,7.572430257,-99999.0,'11133222,11111222,99999999' 
TABS,ioos:station:wmo:42051:1,2004-09-03T05:00:00Z,29.6350,-93.6417,2.0,175.2105291,3.712963776,-99999.0,'11133222,11111222,99999999' 
TABS,ioos:station:wmo:42051:1,2004-09-03T05:30:00Z,29.6350,-93.6417,2.0,202.1935778,7.86252504,-99999.0,'11133222,11111222,99999999' 
TABS,ioos:station:wmo:42051:1,2004-09-03T06:00:00Z,29.6350,-93.6417,2.0,228.8287217,7.200277772,-99999.0,'11133222,11111222,99999999' 
TABS,ioos:station:wmo:42051:1,2004-09-03T06:30:00Z,29.6350,-93.6417,2.0,255.5754351,4.65679074,-99999.0,'11133222,11111222,99999999' 
TABS,ioos:station:wmo:42051:1,2004-09-03T07:00:00Z,29.6350,-93.6417,2.0,307.9451461,2.878506557,-99999.0,'11133222,11111222,99999999' 
TABS,ioos:station:wmo:42051:1,2004-09-03T07:30:00Z,29.6350,-93.6417,2.0,248.7622284,2.26373585,-99999.0,'11133222,11111222,99999999' 
TABS,ioos:station:wmo:42051:1,2004-09-03T08:00:00Z,29.6350,-93.6417,2.0,286.8334551,3.280563976,-99999.0,'11133222,11111222,99999999' 
TABS,ioos:station:wmo:42051:1,2004-09-03T08:30:00Z,29.6350,-93.6417,2.0,280.0766948,5.829922813,-99999.0,'11133222,11111222,99999999' 
TABS,ioos:station:wmo:42051:1,2004-09-03T09:00:00Z,29.6350,-93.6417,2.0,273.9152116,9.081189349,-99999.0,'11133222,11111222,99999999' 
TABS,ioos:station:wmo:42051:1,2004-09-03T09:30:00Z,29.6350,-93.6417,2.0,277.1449178,10.93490283,-99999.0,'11111222,11111222,99999999' 
TABS,ioos:station:wmo:42051:1,2004-09-03T10:00:00Z,29.6350,-93.6417,2.0,269.5201288,11.9504184,-99999.0,'11111222,11111222,99999999' 
TABS,ioos:station:wmo:42051:1,2004-09-03T10:30:00Z,29.6350,-93.6417,2.0,288.6531797,8.316850365,-99999.0,'11133222,11111222,99999999' 
TABS,ioos:station:wmo:42051:1,2004-09-03T11:00:00Z,29.6350,-93.6417,2.0,285.978357,9.663317236,-99999.0,'11133222,11111222,99999999' 
TABS,ioos:station:wmo:42051:1,2004-09-03T11:30:00Z,29.6350,-93.6417,2.0,296.1707687,7.142170538,-99999.0,'11133222,11111222,99999999' 
TABS,ioos:station:wmo:42051:1,2004-09-03T12:00:00Z,29.6350,-93.6417,2.0,288.9423545,5.360270516,-99999.0,'11133222,11111222,99999999' 
TABS,ioos:station:wmo:42051:1,2004-09-03T12:30:00Z,29.6350,-93.6417,2.0,315.2434358,4.99928995,-99999.0,'11133222,11111222,99999999' 
TABS,ioos:station:wmo:42051:1,2004-09-03T13:00:00Z,29.6350,-93.6417,2.0,335.8112711,5.393560976,-99999.0,'11133222,11111222,99999999' 
TABS,ioos:station:wmo:42051:1,2004-09-03T13:30:00Z,29.6350,-93.6417,2.0,248.1982206,1.40014285,-99999.0,'11133222,11111222,99999999' 
TABS,ioos:station:wmo:42051:1,2004-09-03T14:00:00Z,29.6350,-93.6417,2.0,307.2167744,2.976054435,-99999.0,'11133222,11111222,99999999' 
TABS,ioos:station:wmo:42051:1,2004-09-03T14:30:00Z,29.6350,-93.6417,2.0,270.4286315,6.690186843,-99999.0,'11133222,11111222,99999999' 
TABS,ioos:station:wmo:42051:1,2004-09-03T15:00:00Z,29.6350,-93.6417,2.0,238.8771817,3.714673606,-99999.0,'11133222,11111222,99999999' 
TABS,ioos:station:wmo:42051:1,2004-09-03T15:30:00Z,29.6350,-93.6417,2.0,288.1256235,2.925149569,-99999.0,'11133222,11111222,99999999' 
TABS,ioos:station:wmo:42051:1,2004-09-03T16:00:00Z,29.6350,-93.6417,2.0,332.4322075,4.343109485,-99999.0,'11133222,11111222,99999999' 
TABS,ioos:station:wmo:42051:1,2004-09-03T16:30:00Z,29.6350,-93.6417,2.0,262.503739,2.299652148,-99999.0,'11133222,11111222,99999999' 
TABS,ioos:station:wmo:42051:1,2004-09-03T17:00:00Z,29.6350,-93.6417,2.0,280.9544579,10.10409818,-99999.0,'11111222,11111222,99999999' 
TABS,ioos:station:wmo:42051:1,2004-09-03T17:30:00Z,29.6350,-93.6417,2.0,273.8024525,6.333940322,-99999.0,'11133222,11111222,99999999' 
TABS,ioos:station:wmo:42051:1,2004-09-03T18:00:00Z,29.6350,-93.6417,2.0,278.9791433,4.869671447,-99999.0,'11133222,11111222,99999999' 
TABS,ioos:station:wmo:42051:1,2004-09-03T18:30:00Z,29.6350,-93.6417,2.0,345.4307569,11.72710535,-99999.0,'11111222,11111222,99999999' 
TABS,ioos:station:wmo:42051:1,2004-09-03T19:00:00Z,29.6350,-93.6417,2.0,339.08626,5.994964554,-99999.0,'11133222,11111222,99999999' 
TABS,ioos:station:wmo:42051:1,2004-09-03T19:30:00Z,29.6350,-93.6417,2.0,329.0365263,5.306166224,-99999.0,'11133222,11111222,99999999' 
TABS,ioos:station:wmo:42051:1,2004-09-03T20:00:00Z,29.6350,-93.6417,2.0,337.2648325,8.771556304,-99999.0,'11133222,11111222,99999999' 
TABS,ioos:station:wmo:42051:1,2004-09-03T20:30:00Z,29.6350,-93.6417,2.0,332.4642017,7.916817542,-99999.0,'11133222,11111222,99999999' 
TABS,ioos:station:wmo:42051:1,2004-09-03T21:00:00Z,29.6350,-93.6417,2.0,329.8116174,9.127989921,-99999.0,'11133222,11111222,99999999' 
TABS,ioos:station:wmo:42051:1,2004-09-03T21:30:00Z,29.6350,-93.6417,2.0,348.8177412,8.817403246,-99999.0,'11133222,11111222,99999999' 
TABS,ioos:station:wmo:42051:1,2004-09-03T22:00:00Z,29.6350,-93.6417,2.0,6.713161801,10.69331099,-99999.0,'11111222,11111222,99999999' 
TABS,ioos:station:wmo:42051:1,2004-09-03T22:30:00Z,29.6350,-93.6417,2.0,5.728388986,9.718528695,-99999.0,'11133222,11111222,99999999' 
TABS,ioos:station:wmo:42051:1,2004-09-03T23:00:00Z,29.6350,-93.6417,2.0,352.6616213,7.985411699,-99999.0,'11133222,11111222,99999999' 
TABS,ioos:station:wmo:42051:1,2004-09-03T23:30:00Z,29.6350,-93.6417,2.0,340.3726746,8.812014526,-99999.0,'11133222,11111222,99999999' 
TABS,ioos:station:wmo:42051:1,2004-09-04T00:00:00Z,29.6350,-93.6417,2.0,354.5730648,8.24696914,-99999.0,'11133222,11111222,99999999' 
TABS,ioos:station:wmo:42051:1,2004-09-04T00:30:00Z,29.6350,-93.6417,2.0,344.4482615,6.601704325,-99999.0,'11133222,11111222,99999999' 
TABS,ioos:station:wmo:42051:1,2004-09-04T01:00:00Z,29.6350,-93.6417,2.0,323.9683241,9.162979865,-99999.0,'11133222,11111222,99999999' 
TABS,ioos:station:wmo:42051:1,2004-09-04T01:30:00Z,29.6350,-93.6417,2.0,283.8271967,4.644588249,-99999.0,'11133222,11111222,99999999' 
TABS,ioos:station:wmo:42051:1,2004-09-04T02:00:00Z,29.6350,-93.6417,2.0,322.6365216,25.7549568,-99999.0,'11111222,11111222,99999999' 
TABS,ioos:station:wmo:42051:1,2004-09-04T02:30:00Z,29.6350,-93.6417,2.0,326.175574,27.14432906,-99999.0,'11111222,11111222,99999999' 
TABS,ioos:station:wmo:42051:1,2004-09-04T03:00:00Z,29.6350,-93.6417,2.0,326.390552,31.6512243,-99999.0,'11111222,11111222,99999999' 
TABS,ioos:station:wmo:42051:1,2004-09-04T03:30:00Z,29.6350,-93.6417,2.0,335.5545778,27.33002927,-99999.0,'11111222,11111222,99999999' 
TABS,ioos:station:wmo:42051:1,2004-09-04T04:00:00Z,29.6350,-93.6417,2.0,341.8115596,22.07290194,-99999.0,'11111222,11111222,99999999' 
TABS,ioos:station:wmo:42051:1,2004-09-04T04:30:00Z,29.6350,-93.6417,2.0,347.9854253,25.02827401,-99999.0,'11111222,11111222,99999999' 
TABS,ioos:station:wmo:42051:1,2004-09-04T05:00:00Z,29.6350,-93.6417,2.0,338.4440238,15.62269183,-99999.0,'11111222,11111222,99999999' 
TABS,ioos:station:wmo:42051:1,2004-09-04T05:30:00Z,29.6350,-93.6417,2.0,322.5488657,22.66116723,-99999.0,'11111222,11111222,99999999' 
TABS,ioos:station:wmo:42051:1,2004-09-04T06:00:00Z,29.6350,-93.6417,2.0,329.2307182,22.2640742,-99999.0,'11111222,11111222,99999999' 
TABS,ioos:station:wmo:42051:1,2004-09-04T06:30:00Z,29.6350,-93.6417,2.0,334.5757854,17.74895208,-99999.0,'11111222,11111222,99999999' 
TABS,ioos:station:wmo:42051:1,2004-09-04T07:00:00Z,29.6350,-93.6417,2.0,350.5305307,12.76393748,-99999.0,'11111222,11111222,99999999' 
TABS,ioos:station:wmo:42051:1,2004-09-04T07:30:00Z,29.6350,-93.6417,2.0,340.8999659,12.25465218,-99999.0,'11111222,11111222,99999999' 
TABS,ioos:station:wmo:42051:1,2004-09-04T08:00:00Z,29.6350,-93.6417,2.0,337.1905527,15.09008284,-99999.0,'11111222,11111222,99999999' 
TABS,ioos:station:wmo:42051:1,2004-09-04T08:30:00Z,29.6350,-93.6417,2.0,330.8940745,14.02051711,-99999.0,'11111222,11111222,99999999' 
TABS,ioos:station:wmo:42051:1,2004-09-04T09:00:00Z,29.6350,-93.6417,2.0,334.3882043,20.70438118,-99999.0,'11111222,11111222,99999999' 
TABS,ioos:station:wmo:42051:1,2004-09-04T09:30:00Z,29.6350,-93.6417,2.0,326.5295124,21.01497085,-99999.0,'11111222,11111222,99999999' 
TABS,ioos:station:wmo:42051:1,2004-09-04T10:00:00Z,29.6350,-93.6417,2.0,333.9904456,19.38314732,-99999.0,'11111222,11111222,99999999' 
TABS,ioos:station:wmo:42051:1,2004-09-04T10:30:00Z,29.6350,-93.6417,2.0,334.9582876,13.79694169,-99999.0,'11111222,11111222,99999999' 
TABS,ioos:station:wmo:42051:1,2004-09-04T11:00:00Z,29.6350,-93.6417,2.0,328.9581704,11.28633244,-99999.0,'11111222,11111222,99999999' 
TABS,ioos:station:wmo:42051:1,2004-09-04T11:30:00Z,29.6350,-93.6417,2.0,338.0184594,15.33479703,-99999.0,'11111222,11111222,99999999' 
TABS,ioos:station:wmo:42051:1,2004-09-04T12:00:00Z,29.6350,-93.6417,2.0,324.4626158,14.45190645,-99999.0,'11111222,11111222,99999999' 
TABS,ioos:station:wmo:42051:1,2004-09-04T12:30:00Z,29.6350,-93.6417,2.0,309.3842479,13.22272665,-99999.0,'11111222,11111222,99999999' 
TABS,ioos:station:wmo:42051:1,2004-09-04T13:00:00Z,29.6350,-93.6417,2.0,327.1627114,15.47230106,-99999.0,'11111222,11111222,99999999' 
TABS,ioos:station:wmo:42051:1,2004-09-04T13:30:00Z,29.6350,-93.6417,2.0,322.2631707,10.57121091,-99999.0,'11111222,11111222,99999999' 
TABS,ioos:station:wmo:42051:1,2004-09-04T14:00:00Z,29.6350,-93.6417,2.0,300.9412447,12.89497964,-99999.0,'11111222,11111222,99999999' 
TABS,ioos:station:wmo:42051:1,2004-09-04T14:30:00Z,29.6350,-93.6417,2.0,282.7966216,15.80247133,-99999.0,'11111222,11111222,99999999' 
TABS,ioos:station:wmo:42051:1,2004-09-04T15:00:00Z,29.6350,-93.6417,2.0,285.2002893,26.39331923,-99999.0,'11111222,11111222,99999999' 
TABS,ioos:station:wmo:42051:1,2004-09-04T15:30:00Z,29.6350,-93.6417,2.0,292.2454043,30.21910819,-99999.0,'11111222,11111222,99999999' 
TABS,ioos:station:wmo:42051:1,2004-09-04T16:00:00Z,29.6350,-93.6417,2.0,293.0522289,39.99344446,-99999.0,'11111222,11111222,99999999' 